YAOGAN 12

导读 | 星芒AI

Yao Gan 12 是中国研制的一颗遥感卫星,主要用于国土普查、资源调查、环境监测等领域。该卫星具备高分辨率成像能力,能够提供清晰的地球表面图像,支持农业、林业、城市规划等多行业应用。它由中国航天科技集团公司研制,并通过长征系列运载火箭发射入轨。Yao Gan 12 的成功发射和运行,提升了中国在遥感技术领域的自主创新能力,为国家的可持续发展和灾害预警提供了重要数据支持。

基本信息
目录编号:
37875
目录名称:
YAOGAN 12
国际标识:
2011-066B
轨道中心:
EARTH
卫星名称:
YAOGAN 12
卫星全名:
--
卫星状态:
在轨 (已飞行5103 天)
发射日期:
2011-11-09 UTC
国别 :
中国 (CN)
星等 :
--
轨道信息
数据来源 国际轨道数据
星历时间: 2025-10-28T23:58:47+0800
15小时前
查看轨道信息
半长轴: 6872.701km
偏心率: 0.0008878
轨道倾角: 97.149°
近地点辐角 326.507°
升交点赤经 346.144°
平近点角 33.561°
近地点: 488.464km
远地点: 500.668km
周期: 94.504分钟
每日圈数: 15.237428
详细信息
使用方式:
暂无
2D轨道图
3D轨道图
轨道高度分析图
轨道倾角分析图
轨道综合分析图
查看轨道综合分析图